User: anonymous   Login
Location: Unspecified
(0.0000°N, 0.0000°E)
Time: 05:58:45
(UTC+01:00)
Language:

AO-7 - Orbit

View from above orbital plane
View from above orbital plane
View from above satellite
View from above satellite

Ground track
Ground track

The orbit data is extracted from the following two-line orbital elements,

1 07530U 74089B   16344.48508515 -.00000019  00000-0  15497-3 0  9997
2 07530 101.6022 311.1336 0012040 332.0237 176.5555 12.53624592925081
Epoch (UTC): 09 December 2016 11:38:31
Eccentricity: 0.0012040
inclination: 101.6022°
perigee height: 1440 km
apogee height: 1459 km
right ascension of ascending node: 311.1336°
argument of perigee: 332.0237°
revolutions per day: 12.53624592
mean anomaly at epoch: 176.5555°
orbit number at epoch: 92508

The dashed part of the orbit path shows where the satellite is in the earth's shadow,  

DLR